Regional Weather Roundup
Issued by NWS Little Rock, AR

Home | Current Version | Previous Version | Graphics & Text | Print | Product List | Glossary On
Versions: 1 2 3 4 5 6 7 8 9 10 11 12 13 14 15 16 17 18 19 20 21 22 23 24 25 26 27 28 29 30 31 32 33 34 35 36 37 38 39 40 41 42 43 44 45 46 47 48
000
ASUS44 KLZK 290405
RWRLZK

WEATHER ROUNDUP FOR ARKANSAS
NATIONAL WEATHER SERVICE LITTLE ROCK AR
1100 PM CDT TUE JUL 28 2015

NOTE: "FAIR" INDICATES FEW OR NO CLOUDS BELOW 12,000 FEET WITH NO
SIGNIFICANT WEATHER AND/OR OBSTRUCTIONS TO VISIBILITY.

ARZ001-003-010-029-290500-
NORTHWEST ARKANSAS

CITY           SKY/WX    TMP DP  RH WIND       PRES   REMARKS
FAYETTEVILLE   CLEAR     78  76  93 CALM      30.01R
FORT SMITH     CLEAR     86  68  54 CALM      29.95R HX  89
HARRISON       CLEAR     79  75  87 S3        30.01R
BENTONVILLE    CLEAR     81  72  74 S5        30.00R
ROGERS         CLEAR     81  75  82 SE6       30.01R HX  87
SILOAM SPGS    CLEAR     79  70  73 SE6       29.99R
HIGHFILL       CLEAR     81  76  84 S3        29.99R HX  87
$$

ARZ004-005-016-290500-
NORTH CENTRAL ARKANSAS

CITY           SKY/WX    TMP DP  RH WIND       PRES   REMARKS
BATESVILLE     CLEAR     81  75  83 CALM      29.98R HX  86
FLIPPIN        CLEAR     81  75  83 CALM      29.97R HX  86
MTN HOME       CLEAR     81  75  82 CALM      29.98R HX  87
$$

ARZ040-041-290500-
WEST CENTRAL ARKANSAS

CITY           SKY/WX    TMP DP  RH WIND       PRES   REMARKS
MENA           CLEAR     81  72  74 CALM      30.02R
MOUNT IDA      CLEAR     79  73  82 CALM      29.98R
$$

ARZ009-017-025-026-028-290500-
NORTHEAST ARKANSAS

CITY           SKY/WX    TMP DP  RH WIND       PRES   REMARKS
JONESBORO      CLEAR     80  79  96 CALM      29.97R HX  88
NEWPORT        CLEAR     83  81  94 SE3       29.98R HX  97
WALNUT RIDGE   CLEAR     82  77  83 SE6       29.97R HX  91
BLYTHEVILLE    CLEAR     85  80  85 S5        29.98S HX  99
$$

ARZ022-023-033-042-044-290500-
CENTRAL ARKANSAS

CITY           SKY/WX    TMP DP  RH WIND       PRES   REMARKS
LITTLE ROCK    CLEAR     86  76  71 CALM      29.98R HX  96
N LITTLE ROCK  CLEAR     85  76  76 SW5       29.98R HX  94
SEARCY         CLEAR     81  78  91 CALM      29.98  HX  89
HOT SPRINGS    CLEAR     82  72  71 E5        29.99R HX  87
RUSSELLVILLE   CLEAR     80  75  84 CALM      29.96R HX  85
$$

ARZ036-290500-
EAST ARKANSAS

CITY           SKY/WX    TMP DP  RH WIND       PRES   REMARKS
WEST MEMPHIS   CLEAR     81  79  94 S3        29.98R HX  90
$$

ARZ050-053-066-070-073-290500-
SOUTHWEST ARKANSAS

CITY           SKY/WX    TMP DP  RH WIND       PRES   REMARKS
ARKADELPHIA    FAIR      81  79  94 CALM      29.98R HX  90
CAMDEN         CLEAR     81  75  83 CALM      29.97R HX  86
TEXARKANA      CLEAR     86  70  58 S7        29.96R HX  90
EL DORADO      CLEAR     80  76  87 CALM      29.98R HX  86
DE QUEEN       CLEAR     78  77  96 CALM      29.94R
$$

ARZ056-057-069-290500-
SOUTHEAST ARKANSAS

CITY           SKY/WX    TMP DP  RH WIND       PRES   REMARKS
PINE BLUFF     CLEAR     83  77  82 CALM      29.98R HX  92
STUTTGART      CLEAR     86  75  70 SE6       29.98R HX  95
MONTICELLO     CLEAR     82  76  81 CALM      29.99R HX  89

$$





USA.gov is the U.S. government's official web portal to all federal, state and local government web resources and services.